ATLAS 41E DEB

基本信息
目录编号:
15614
目录名称:
ATLAS 41E DEB
国际标识:
1985-021D
轨道中心:
EARTH
物体状态:
在轨
发射日期:
1985-03-13 UTC
轨道信息
数据来源: 国际轨道数据
星历时间: 2026-07-13T18:48:08+0800
半长轴: 7011.541km
偏心率: 0.0013652
轨道倾角: 108.224°
近地点辐角: 237.565°
升交点赤经: 198.023°
平近点角: 122.419°
近地点: 623.831km
远地点: 642.977km
周期: 97.382分钟
每日圈数: 14.787086
详细信息
发射场:
AFWTR
轨道高度:
LEO
数据来源:
AOE Integration Group
参考系:
TEME
时间系统:
UTC
历元类型:
SGP4
2D轨道图
3D轨道图
轨道高度分析图
轨道倾角分析图
轨道综合分析图
查看轨道综合分析图